| time (UTC) | temp F | wind direction | speed MPH | gust MPH | rain 1hr in | rain 24hr in | rain mn in | humidity % | barometer mb |
| 20260905160033 | 93 | 352 | 0.0 | 2.0 | 0.00 | 0.00 | 0.00 | 34 | 1010.2 |
| 20260905154528 | 92 | 41 | 0.0 | 2.0 | 0.00 | 0.00 | 0.00 | 36 | 1009.9 |
| 20260905153034 | 91 | 106 | 0.0 | 2.0 | 0.00 | 0.00 | 0.00 | 36 | 1009.9 |
| 20260905151523 | 90 | 82 | 0.0 | 2.0 | 0.00 | 0.00 | 0.00 | 38 | 1009.7 |
| 20260905150023 | 89 | 29 | 0.0 | 0.0 | 0.00 | 0.00 | 0.00 | 40 | 1009.7 |
| 20260905144526 | 87 | 82 | 1.0 | 2.0 | 0.00 | 0.00 | 0.00 | 42 | 1009.6 |
| 20260905143026 | 87 | 85 | 0.0 | 1.0 | 0.00 | 0.00 | 0.00 | 43 | 1009.6 |
| 20260905141520 | 84 | 352 | 0.0 | 1.0 | 0.00 | 0.00 | 0.00 | 47 | 1009.4 |
| 20260905140018 | 83 | 352 | 0.0 | 0.0 | 0.00 | 0.00 | 0.00 | 49 | 1009.3 |
| 20260905134515 | 81 | 352 | 0.0 | 0.0 | 0.00 | 0.00 | 0.00 | 53 | 1009.2 |
| 20260905133013 | 0 | 0.0 | 0.0 | 0.00 | 0.00 | 0.00 | 1009.0 | ||
| 20260905131505 | 0 | 0.0 | 0.0 | 0.00 | 0.00 | 0.00 | 1008.9 | ||
| 20260905130002 | 0 | 0.0 | 0.0 | 0.00 | 0.00 | 0.00 | 1008.8 | ||
| 20260905124556 | 0 | 0.0 | 0.0 | 0.00 | 0.00 | 0.00 | 1008.6 | ||
| 20260905123051 | 0 | 0.0 | 0.0 | 0.00 | 0.00 | 0.00 | 1008.5 | ||
| 20260905121545 | 0 | 0.0 | 0.0 | 0.00 | 0.00 | 0.00 | 1008.4 | ||
| 20260905120040 | 0 | 0.0 | 0.0 | 0.00 | 0.00 | 0.00 | 1008.3 | ||
| 20260905114540 | 0 | 0.0 | 0.0 | 0.00 | 0.00 | 0.00 | 1008.3 | ||
| 20260905113032 | 0 | 0.0 | 0.0 | 0.00 | 0.00 | 0.00 | 1008.2 | ||
| 20260905111628 | 0 | 0.0 | 0.0 | 0.00 | 0.00 | 0.00 | 1008.1 | ||
| 20260905110053 | 0 | 0.0 | 0.0 | 0.00 | 0.00 | 0.00 | 1008.0 | ||
| 20260905104554 | 82 | 352 | 0.0 | 0.0 | 0.00 | 0.00 | 0.00 | 44 | 1007.9 |
| 20260905103020 | 83 | 352 | 0.0 | 0.0 | 0.00 | 0.00 | 0.00 | 44 | 1007.9 |
| 20260905101518 | 83 | 352 | 0.0 | 0.0 | 0.00 | 0.00 | 0.00 | 44 | 1007.9 |
| 20260905100014 | 83 | 352 | 0.0 | 0.0 | 0.00 | 0.00 | 0.00 | 43 | 1007.8 |
| 20260905094514 | 84 | 352 | 0.0 | 0.0 | 0.00 | 0.00 | 0.00 | 42 | 1007.8 |
| 20260905093013 | 85 | 352 | 0.0 | 1.0 | 0.00 | 0.00 | 0.00 | 41 | 1007.8 |
| 20260905091513 | 85 | 352 | 0.0 | 0.0 | 0.00 | 0.00 | 0.00 | 41 | 1007.7 |
| 20260905090010 | 84 | 351 | 0.0 | 1.0 | 0.00 | 0.00 | 0.00 | 42 | 1007.7 |
| 20260905084509 | 84 | 352 | 0.0 | 0.0 | 0.00 | 0.00 | 0.00 | 43 | 1007.8 |
| 20260905083007 | 84 | 352 | 0.0 | 0.0 | 0.00 | 0.00 | 0.00 | 41 | 1007.8 |
| 20260905081507 | 84 | 354 | 0.0 | 0.0 | 0.00 | 0.00 | 0.00 | 40 | 1007.8 |
| 20260905080003 | 85 | 354 | 0.0 | 0.0 | 0.00 | 0.00 | 0.00 | 39 | 1007.8 |
| 20260905074606 | 87 | 354 | 0.0 | 0.0 | 0.00 | 0.00 | 0.00 | 37 | 1007.8 |
| 20260905073056 | 87 | 234 | 0.0 | 0.0 | 0.00 | 0.00 | 0.00 | 37 | 1007.7 |
| 20260905071556 | 87 | 233 | 0.0 | 1.0 | 0.00 | 0.00 | 0.00 | 36 | 1007.7 |
| 20260905070030 | 87 | 209 | 0.0 | 1.0 | 0.00 | 0.00 | 0.00 | 36 | 1007.7 |
| 20260905064523 | 88 | 208 | 0.0 | 1.0 | 0.00 | 0.00 | 0.00 | 35 | 1007.7 |
| 20260905063020 | 88 | 212 | 0.0 | 0.0 | 0.00 | 0.00 | 0.00 | 36 | 1007.6 |
| 20260905061518 | 89 | 236 | 0.0 | 1.0 | 0.00 | 0.00 | 0.00 | 34 | 1007.3 |
| 20260905060017 | 90 | 209 | 0.0 | 3.0 | 0.00 | 0.00 | 0.00 | 34 | 1007.3 |
| 20260905054518 | 89 | 220 | 0.0 | 3.0 | 0.00 | 0.00 | 0.00 | 35 | 1007.3 |
| 20260905053044 | 89 | 219 | 0.0 | 1.0 | 0.00 | 0.00 | 0.00 | 36 | 1007.2 |
| 20260905051543 | 90 | 243 | 0.0 | 1.0 | 0.00 | 0.00 | 0.00 | 34 | 1007.2 |
| 20260905050010 | 91 | 265 | 0.0 | 1.0 | 0.00 | 0.00 | 0.00 | 34 | 1007.1 |
| 20260905044509 | 91 | 269 | 0.0 | 1.0 | 0.00 | 0.00 | 0.00 | 33 | 1007.1 |
| 20260905043003 | 92 | 240 | 0.0 | 1.0 | 0.00 | 0.00 | 0.00 | 31 | 1006.9 |
| 20260905041600 | 92 | 256 | 0.0 | 1.0 | 0.00 | 0.00 | 0.00 | 30 | 1006.9 |
| 20260905034556 | 94 | 103 | 0.0 | 2.0 | 0.00 | 0.00 | 0.00 | 28 | 1006.7 |
| 20260905033023 | 95 | 252 | 0.0 | 3.0 | 0.00 | 0.00 | 0.00 | 28 | 1006.4 |
| 20260905031522 | 95 | 205 | 1.0 | 4.0 | 0.00 | 0.00 | 0.00 | 28 | 1006.2 |
| 20260905030018 | 94 | 91 | 0.0 | 0.0 | 0.00 | 0.00 | 0.00 | 35 | 1005.9 |
| 20260905024517 | 95 | 91 | 0.0 | 0.0 | 0.00 | 0.00 | 0.00 | 33 | 1005.6 |
| 20260905023020 | 95 | 91 | 0.0 | 0.0 | 0.00 | 0.00 | 0.00 | 33 | 1005.4 |
| 20260905021512 | 96 | 91 | 0.0 | 1.0 | 0.00 | 0.00 | 0.00 | 33 | 1005.2 |
| 20260905020041 | 96 | 11 | 0.0 | 2.0 | 0.00 | 0.00 | 0.00 | 32 | 1005.1 |
| 20260905014540 | 96 | 37 | 0.0 | 2.0 | 0.00 | 0.00 | 0.00 | 31 | 1005.0 |
| 20260905013037 | 97 | 11 | 1.0 | 3.0 | 0.00 | 0.00 | 0.00 | 32 | 1005.1 |
| 20260905011544 | 97 | 33 | 0.0 | 3.0 | 0.00 | 0.00 | 0.00 | 32 | 1005.0 |
| 20260905010035 | 97 | 344 | 0.0 | 4.0 | 0.00 | 0.00 | 0.00 | 31 | 1004.9 |
| 20260905004538 | 97 | 236 | 0.0 | 1.0 | 0.00 | 0.00 | 0.00 | 30 | 1004.9 |
| 20260905003032 | 98 | 256 | 0.0 | 3.0 | 0.00 | 0.00 | 0.00 | 30 | 1005.0 |
| 20260905001530 | 99 | 260 | 1.0 | 5.0 | 0.00 | 0.00 | 0.00 | 29 | 1005.1 |
| 20260905000034 | 100 | 42 | 0.0 | 2.0 | 0.00 | 0.00 | 0.00 | 28 | 1005.1 |
| 20260904234528 | 100 | 221 | 0.0 | 0.0 | 0.00 | 0.00 | 0.00 | 28 | 1005.1 |
| 20260904233025 | 99 | 257 | 0.0 | 3.0 | 0.00 | 0.00 | 0.00 | 30 | 1005.3 |
| 20260904231525 | 98 | 244 | 0.0 | 2.0 | 0.00 | 0.00 | 0.00 | 31 | 1005.4 |
| 20260904230046 | 99 | 39 | 0.0 | 5.0 | 0.00 | 0.00 | 0.00 | 32 | 1005.5 |
| 20260904224518 | 99 | 285 | 1.0 | 3.0 | 0.00 | 0.00 | 0.00 | 31 | 1005.7 |
| 20260904223058 | 98 | 255 | 0.0 | 1.0 | 0.00 | 0.00 | 0.00 | 32 | 1005.7 |
| 20260904221545 | 99 | 73 | 1.0 | 5.0 | 0.00 | 0.00 | 0.00 | 31 | 1006.0 |
| 20260904220012 | 99 | 100 | 2.0 | 6.0 | 0.00 | 0.00 | 0.00 | 30 | 1006.1 |
| 20260904214512 | 99 | 229 | 1.0 | 6.0 | 0.00 | 0.00 | 0.00 | 30 | 1006.3 |
| 20260904213007 | 101 | 289 | 1.0 | 5.0 | 0.00 | 0.00 | 0.00 | 27 | 1006.5 |
| 20260904211505 | 102 | 279 | 2.0 | 8.0 | 0.00 | 0.00 | 0.00 | 28 | 1006.6 |
| 20260904210101 | 101 | 141 | 1.0 | 7.0 | 0.00 | 0.00 | 0.00 | 30 | 1006.8 |
| 20260904204557 | 101 | 140 | 2.0 | 6.0 | 0.00 | 0.00 | 0.00 | 31 | 1006.9 |
| 20260904203054 | 100 | 243 | 2.0 | 7.0 | 0.00 | 0.00 | 0.00 | 32 | 1007.3 |
| 20260904201555 | 100 | 113 | 0.0 | 9.0 | 0.00 | 0.00 | 0.00 | 33 | 1007.5 |
| 20260904200055 | 100 | 125 | 4.0 | 12.0 | 0.00 | 0.00 | 0.00 | 33 | 1007.7 |
| 20260904194548 | 99 | 281 | 2.0 | 6.0 | 0.00 | 0.00 | 0.00 | 36 | 1008.0 |
| 20260904193041 | 99 | 131 | 1.0 | 7.0 | 0.00 | 0.00 | 0.00 | 34 | 1008.2 |
| 20260904191638 | 99 | 280 | 1.0 | 10.0 | 0.00 | 0.00 | 0.00 | 36 | 1008.4 |
| 20260904190035 | 99 | 98 | 0.0 | 5.0 | 0.00 | 0.00 | 0.00 | 36 | 1008.6 |
| 20260904184551 | 98 | 84 | 0.0 | 5.0 | 0.00 | 0.00 | 0.00 | 39 | 1008.9 |
| 20260904183030 | 97 | 201 | 0.0 | 4.0 | 0.00 | 0.00 | 0.00 | 38 | 1009.0 |
| 20260904181527 | 97 | 122 | 2.0 | 7.0 | 0.00 | 0.00 | 0.00 | 39 | 1009.3 |
| 20260904180023 | 96 | 292 | 1.0 | 7.0 | 0.00 | 0.00 | 0.00 | 42 | 1009.4 |
| 20260904174523 | 95 | 165 | 1.0 | 5.0 | 0.00 | 0.00 | 0.00 | 43 | 1009.5 |
| 20260904173013 | 94 | 84 | 2.0 | 9.0 | 0.00 | 0.00 | 0.00 | 43 | 1009.6 |
| 20260904171502 | 94 | 237 | 2.0 | 9.0 | 0.00 | 0.00 | 0.00 | 45 | 1009.6 |
| 20260904170059 | 93 | 124 | 2.0 | 12.0 | 0.00 | 0.00 | 0.00 | 47 | 1009.5 |
| 20260904164553 | 93 | 96 | 2.0 | 8.0 | 0.00 | 0.00 | 0.00 | 46 | 1009.3 |
| 20260904163054 | 92 | 76 | 2.0 | 7.0 | 0.00 | 0.00 | 0.00 | 48 | 1009.2 |
| 20260904161542 | 90 | 95 | 5.0 | 11.0 | 0.00 | 0.00 | 0.00 | 50 | 1009.3 |